Weather in Mstsislaw

Belarus     54°01′10″N   31°43′29″E
temp.,
°C
wind,
m/s
gust,
m/s
humid.,
%
clouds,
%
prec.,
mm/h
press.,
hPa
HPBL,
m
26 july, mon
mon2600:00+17sse226972 0.0 102122
03:00+17s237571 0.0 102152
06:00+16s358464 0.0 1022125
09:00+22sse236611 0.0 1021369
12:00+26s334914 0.0 10211688
15:00+28s334257 0.0 10202358
18:00+24nw0158100 0.0 102018
21:00+20e2370100 0.3 102026
27 july, tue
tue2700:00+19se3474100 0.1 102158
03:00+17sse347918 0.1 102162
06:00+17sse348181 0.0 102161
09:00+23s345952 0.0 1021374
12:00+27sse454315 0.0 10191471
15:00+29s453799 0.0 10182783
18:00+28s56445 0.0 10171858
21:00+21se4107034 0.0 1016213
28 july, wed
wed2800:00+18sse4138947 0.6 1016279
03:00+18sse51394100 5.3 1015320
06:00+17s51292100 0.8 1013373
09:00+19ssw51093100 1.8 1013436
12:00+21sw5891100 2.0 1012632
15:00+24w577164 3.5 10111210
18:00+27nw48540 0.4 10111766
21:00+22sw126489 0.4 101111
29 july, thu
thu2900:00+20w34700 0.0 101149
03:00+18w34811 0.0 101166
06:00+17wnw34845 0.0 101177
09:00+23w346393 0.0 1011374
12:00+27sw3450100 0.0 10101358
15:00+29s4643100 0.0 10082356
18:00+19wnw2594100 2.3 1009170
21:00+18w3496100 2.5 100875
30 july, fri
fri3000:00+18wsw249636 0.0 100989
03:00+16nw39940 0.1 1010177
06:00+15wnw37920 0.0 1011122
09:00+20w34710 0.0 1011332
12:00+25wsw464740 0.0 10112094
15:00+26wsw464197 0.0 10102371
18:00+24ssw355699 0.0 1009177
21:00+21s386232 0.0 1008172